Weather History for MMCZ - November, 2012

Change the Weather History Date:

Friday, November 9, 2012

  Actual Average Record
Temperature  
Mean Temperature 72 °F -  
Max Temperature 75 °F 84 °F 87 °F (1998)
Min Temperature 68 °F 74 °F 55 °F (2010)
Cooling Degree Days 6    
Growing Degree Days 22 (Base 50)    
Moisture  
Dew Point 62 °F    
Average Humidity 73    
Maximum Humidity 88    
Minimum Humidity 64    
Precipitation  
Precipitation 0.00 in - - ()
Sea Level Pressure  
Sea Level Pressure 30.07 in    
Wind  
Wind Speed 8 mph ()    
Max Wind Speed 14 mph    
Max Gust Speed -    
Visibility 7.8 miles    
Events      
Averages and records for this station are not official NWS values.
T = Trace of Precipitation, MM = Missing Value Source: Averaged Metar Reports

Daily Weather History Graph

Daily Weather History Graph

Search for Another Location

Airport or City:

Trip Planner

Search our weather history database for the weather conditions in past years. The results will help you decide how hot, cold, wet, or windy it might be!

Date:

Astronomy

Nov. 09, 2012 Rise Set
Actual Time 5:54 AM CST 5:08 PM CST
Civil Twilight 5:31 AM CST 5:31 PM CST
Nautical Twilight 5:04 AM CST 5:58 PM CST
Astronomical Twilight 4:38 AM CST 6:24 PM CST
Moon 1:27 AM CST (11/9) 1:51 PM CST (11/9)
Length of Visible Light 12h 00m
Length of Day
11h 14m
Waning Crescent, 23% of the Moon is Illuminated
Nov 9
Waning Crescent
Nov 13
New
Nov 20
First Quarter
Nov 28
Full
Dec 6
Last Quarter

Hourly Weather History & Observations

Time (CST) Temp. Dew Point Humidity Pressure Visibility Wind Dir Wind Speed Gust Speed Precip Events Conditions
12:51 AM 69.8 °F 66.2 °F 88% 30.06 in 7.0 mi North 10.4 mph - N/A   Clear
1:48 AM 69.8 °F 60.8 °F 73% 30.05 in 7.0 mi NNW 9.2 mph - N/A   Clear
2:42 AM 69.8 °F 60.8 °F 73% 30.08 in 7.0 mi North 4.6 mph - N/A   Clear
3:50 AM 69.8 °F 64.4 °F 83% 30.08 in 7.0 mi North 8.1 mph - N/A   Clear
4:51 AM 69.8 °F 64.4 °F 83% 30.06 in 7.0 mi North 8.1 mph - N/A   Clear
5:44 AM 68.0 °F 60.8 °F 78% 30.03 in 7.0 mi North 8.1 mph - N/A   Clear
6:45 AM 69.8 °F 62.6 °F 78% 30.08 in 7.0 mi NNW 9.2 mph - N/A   Partly Cloudy
7:47 AM 71.6 °F 64.4 °F 78% 30.10 in 8.0 mi NNW 10.4 mph - N/A   Scattered Clouds
8:51 AM 75.2 °F 62.6 °F 65% 30.15 in 10.0 mi North 8.1 mph - N/A   Scattered Clouds
9:45 AM 75.2 °F 62.6 °F 65% 30.12 in 10.0 mi North 9.2 mph - N/A   Scattered Clouds
10:40 AM 75.2 °F 62.6 °F 65% 30.11 in 10.0 mi NNE 9.2 mph - N/A   Mostly Cloudy
11:44 AM 75.2 °F 64.4 °F 69% 30.06 in 8.0 mi NNE 5.8 mph - N/A   Mostly Cloudy
12:47 PM 71.6 °F 66.2 °F 83% 30.05 in 8.0 mi NNE 4.6 mph - N/A   Mostly Cloudy
1:42 PM 75.2 °F 64.4 °F 69% 30.03 in 8.0 mi ENE 11.5 mph - N/A   Scattered Clouds
2:49 PM 75.2 °F 62.6 °F 65% 30.04 in 8.0 mi ENE 13.8 mph - N/A   Mostly Cloudy
3:46 PM 75.2 °F 62.6 °F 65% 30.02 in 8.0 mi ENE 8.1 mph - N/A   Scattered Clouds
4:44 PM 71.6 °F 62.6 °F 73% 30.03 in 8.0 mi ENE 6.9 mph - N/A   Scattered Clouds
5:53 PM 69.8 °F 60.8 °F 73% 30.01 in 8.0 mi ENE 8.1 mph - N/A   Scattered Clouds
6:42 PM 71.6 °F 60.8 °F 69% 30.06 in 8.0 mi ENE 6.9 mph - N/A   Scattered Clouds
7:45 PM 69.8 °F 60.8 °F 73% 30.07 in 7.0 mi ENE 8.1 mph - N/A   Scattered Clouds
8:44 PM 71.6 °F 59.0 °F 64% 30.10 in 7.0 mi ENE 9.2 mph - N/A   Scattered Clouds
9:48 PM 69.8 °F 59.0 °F 68% 30.09 in 7.0 mi NE 9.2 mph - N/A   Scattered Clouds
10:40 PM 68.0 °F 57.2 °F 68% 30.09 in 7.0 mi ENE 6.9 mph - N/A   Clear